DW8065 Weather Reports


Display with metric or nautical units.
time (UTC)temp
F
wind
direction
speed
MPH
gust
MPH
rain 1hr
in
rain 24hr
in
rain mn
in
humidity
%
barometer
mb
20260508051531 34 172 0.0 0.0 0.00 0.00 0.00 83 1008.9
20260508050034 34 172 0.0 0.0 0.00 0.00 0.00 79 1008.9
20260508044529 35 172 0.0 0.0 0.00 0.00 0.00 78 1008.9
20260508043033 36 172 0.0 1.0 0.00 0.00 0.00 75 1008.9
20260508041522 36 172 0.0 0.0 0.00 0.00 0.00 75 1008.9
20260508040018 36 172 0.0 1.0 0.00 0.00 0.00 73 1008.9
20260508034518 37 200 0.0 1.0 0.00 0.00 0.00 72 1008.8
20260508033015 37 171 0.0 1.0 0.00 0.00 0.00 71 1008.8
20260508031511 38 196 0.0 1.0 0.00 0.00 0.00 67 1008.7
20260508030009 40 267 0.0 1.0 0.00 0.00 0.00 61 1008.7
20260508024507 41 252 0.0 1.0 0.00 0.01 0.00 58 1008.8
20260508023006 43 254 0.0 1.0 0.00 0.01 0.00 54 1008.7
20260508021505 43 254 0.0 1.0 0.00 0.01 0.00 53 1008.6
20260508020004 44 275 0.0 1.0 0.00 0.01 0.00 52 1008.4
20260508014504 46 286 0.0 2.0 0.00 0.02 0.00 48 1008.3
20260508013001 47 335 1.0 7.0 0.00 0.02 0.00 44 1008.2
20260508011616 48 308 2.0 7.0 0.00 0.02 0.00 44 1008.2
20260508004559 49 287 3.0 13.0 0.00 0.03 0.00 43 1007.7
20260508003058 50 296 4.0 11.0 0.00 0.03 0.00 42 1007.5
20260508001601 51 325 5.0 16.0 0.00 0.03 0.00 45 1007.2
20260508000057 51 295 10.0 17.0 0.00 0.03 0.00 42 1007.2
20260507234600 52 301 9.0 19.0 0.00 0.04 0.00 39 1006.9
20260507233056 52 290 2.0 10.0 0.00 0.04 0.00 38 1006.6
20260507231556 53 288 4.0 13.0 0.00 0.04 0.00 40 1006.5
20260507230055 54 330 6.0 13.0 0.00 0.04 0.00 37 1006.4
20260507224554 54 293 6.0 13.0 0.00 0.05 0.00 36 1006.4
20260507223055 55 308 9.0 19.0 0.00 0.05 0.00 34 1006.1
20260507221552 55 305 3.0 23.0 0.00 0.05 0.00 35 1006.1
20260507220054 55 312 4.0 15.0 0.00 0.05 0.00 34 1006.1
20260507214552 55 304 6.0 23.0 0.00 0.12 0.00 33 1006.0
20260507213049 56 321 4.0 11.0 0.00 0.12 0.00 32 1006.1
20260507211554 56 272 4.0 13.0 0.00 0.12 0.00 33 1006.0
20260507210048 56 310 3.0 15.0 0.00 0.12 0.00 35 1006.1
20260507204547 54 295 10.0 23.0 0.00 0.15 0.00 38 1006.0
20260507203047 55 284 2.0 23.0 0.00 0.15 0.00 34 1005.8
20260507201545 55 298 4.0 21.0 0.00 0.15 0.00 39 1005.8
20260507200045 54 297 5.0 19.0 0.00 0.15 0.00 37 1006.0
20260507194547 54 296 11.0 26.0 0.00 0.18 0.00 41 1006.1
20260507193043 54 304 19.0 28.0 0.00 0.18 0.00 37 1005.9
20260507191541 53 295 11.0 18.0 0.00 0.18 0.00 44 1006.2
20260507190040 54 174 3.0 14.0 0.00 0.18 0.00 39 1006.4
20260507184538 53 252 15.0 22.0 0.00 0.26 0.00 42 1006.4
20260507183045 55 342 6.0 16.0 0.00 0.26 0.00 40 1006.5
20260507181539 54 89 2.0 21.0 0.00 0.26 0.00 40 1006.6
20260507180034 53 298 13.0 22.0 0.00 0.26 0.00 40 1006.7
20260507174531 53 349 6.0 19.0 0.00 0.35 0.00 39 1006.7
20260507173029 52 307 6.0 26.0 0.00 0.35 0.00 42 1006.8
20260507171528 53 305 9.0 23.0 0.00 0.35 0.00 43 1006.9
20260507170026 53 108 5.0 15.0 0.00 0.35 0.00 42 1007.0
20260507164527 51 314 14.0 22.0 0.00 0.39 0.00 42 1007.2
20260507163022 51 294 9.0 26.0 0.00 0.39 0.00 50 1007.5
20260507161530 51 307 12.0 22.0 0.00 0.39 0.00 52 1007.8
20260507160036 50 295 15.0 28.0 0.00 0.39 0.00 52 1008.0
20260507154517 50 284 10.0 19.0 0.00 0.40 0.00 56 1008.2
20260507153015 49 327 13.0 25.0 0.00 0.40 0.00 54 1008.1
20260507151516 49 357 9.0 30.0 0.00 0.40 0.00 51 1008.3
20260507150017 49 309 13.0 24.0 0.00 0.40 0.00 54 1008.2
20260507144514 49 326 8.0 23.0 0.00 0.40 0.00 57 1008.3
20260507143012 49 282 2.0 20.0 0.00 0.40 0.00 63 1008.2
20260507141515 49 306 8.0 16.0 0.00 0.40 0.00 68 1008.1
20260507140009 49 297 6.0 11.0 0.00 0.40 0.00 69 1008.1
20260507134503 48 307 8.0 16.0 0.00 0.40 0.00 69 1008.2
20260507133116 47 211 1.0 8.0 0.00 0.40 0.00 73 1008.1
20260507131557 46 266 0.0 4.0 0.00 0.40 0.00 78 1008.4
20260507130106 46 277 2.0 9.0 0.00 0.40 0.00 83 1008.2
20260507124624 45 308 1.0 7.0 0.00 0.40 0.00 87 1008.3
20260507123050 45 301 4.0 6.0 0.00 0.40 0.00 87 1008.2
20260507121549 45 308 6.0 10.0 0.00 0.40 0.00 86 1008.1
20260507120047 44 4 0.0 2.0 0.00 0.40 0.00 91 1008.0
20260507114605 44 349 0.0 2.0 0.00 0.40 0.00 92 1007.9
20260507113044 44 24 1.0 3.0 0.00 0.40 0.00 93 1008.0
20260507111543 43 326 0.0 3.0 0.00 0.40 0.00 93 1007.9
20260507110046 43 342 0.0 1.0 0.00 0.40 0.00 93 1007.9
20260507104550 42 342 0.0 1.0 0.00 0.40 0.00 93 1008.0
20260507103041 41 295 0.0 0.0 0.00 0.40 0.00 93 1008.0
20260507101542 40 184 0.0 0.0 0.00 0.40 0.00 93 1007.7
20260507100043 39 184 0.0 0.0 0.00 0.40 0.00 93 1007.6
20260507094542 39 184 0.0 1.0 0.00 0.40 0.00 93 1007.9
20260507093041 40 276 0.0 1.0 0.00 0.40 0.00 93 1007.8
20260507091541 40 276 0.0 1.0 0.00 0.40 0.00 93 1007.9
20260507090034 40 277 0.0 1.0 0.00 0.40 0.00 92 1007.9
20260507084534 42 288 0.0 1.0 0.00 0.40 0.00 93 1007.8
20260507081511 41 288 0.0 1.0 0.00 0.40 0.00 92 1007.7
20260507080008 41 288 0.0 0.0 0.00 0.40 0.00 91 1007.8
20260507074506 42 288 0.0 1.0 0.00 0.40 0.00 91 1007.8
20260507073002 43 290 0.0 2.0 0.00 0.40 0.00 91 1007.6
20260507071503 44 291 0.0 1.0 0.00 0.40 0.00 91 1007.2
20260507070116 44 295 0.0 2.0 0.00 0.40 0.00 91 1007.1
20260507064607 44 311 0.0 0.0 0.00 0.40 0.00 90 1007.2
20260507063101 44 318 0.0 4.0 0.00 0.40 0.00 90 1007.2
20260507061556 44 274 0.0 2.0 0.00 0.40 0.00 89 1007.5
20260507060127 44 297 2.0 5.0 0.00 0.40 0.00 89 1007.0
20260507054555 44 288 0.0 5.0 0.00 0.40 0.00 90 1007.7
20260507053053 44 295 2.0 5.0 0.00 0.40 0.00 89 1007.8